Location: Newark
(17.9939°S, 31.0481°E)
Time: 00:51:35
(UTC+00:00)

Courier 1B - Pass Details

Date: 12 November 2019
Orbit: 963 x 1209 km, 28.3° (Epoch: 07 December)

Event Time Altitude Azimuth Distance (km) Brightness Sun altitude
Rises 18:20:21 0° 274° (W) 4,059 11.5 -29.3°
Reaches altitude 10° 18:23:16 10° 268° (W) 3,119 10.8 -29.9°
Maximum altitude 18:30:49 50° 194° (SSW) 1,497 8.6 -31.3°
Enters shadow 18:34:23 31° 137° (SE) 1,985 9.0 -32.0°
